Погода в Ташебе

Россия / Республика Хакасия     53°40′44″N   91°18′14″E
темп.,
°C
ветер,
м/с
пор.,
м/с
влажн.,
%
обл.,
%
осадки,
мм/ч
давл.,
гПа
погр.,
м
10 мая, пн
пн1001:00+4ссз22675 0.0 102031
04:00+3ссз22705 0.0 102032
07:00+5ссз37715 0.0 1022412
10:00+8с556384 0.0 10231100
13:00+10ссв345581 0.0 10221358
16:00+11св4452100 0.1 10221275
19:00+11всв355121 0.1 10211254
22:00+7всв34703 0.0 102079
11 мая, вт
вт1101:00+6св33730 0.0 101835
04:00+4ссв337956 0.0 101741
07:00+6ссв3675100 0.0 1016307
10:00+10всв3555100 0.0 1015869
13:00+15всв3640100 0.0 10141650
16:00+16в4532100 0.0 10131822
19:00+16св3538100 0.0 1013246
22:00+12с224377 0.0 101318
12 мая, ср
ср1201:00+10с3550100 0.0 101368
04:00+9с3565100 0.0 101476
07:00+10с51060100 0.0 1014448
10:00+13ссв785097 0.0 10141064
13:00+16ссв884089 0.0 10141994
16:00+16с783128 0.0 10132275
19:00+14с67322 0.0 10151701
22:00+10ссв46451 0.0 1017128
13 мая, чт
чт1301:00+8с22510 0.0 101914
04:00+7с22545 0.0 101911
07:00+8ссв12495 0.0 1020135
10:00+12св33335 0.0 10201600
13:00+14св33260 0.0 10192045
16:00+15св33230 0.0 10182025
19:00+15всв22240 0.0 10171495
22:00+10ю33400 0.0 101734
14 мая, пт
пт1401:00+9ююз11440 0.0 101710
04:00+7ююв22495 0.0 101615
07:00+8ююв245066 0.0 1015188
10:00+14ю453743 0.0 1012701
13:00+19ююз5829100 0.0 10092728
16:00+16зсз51044100 0.2 10091998
19:00+13зсз9115797 0.8 10121360
22:00+7сз8136798 0.3 10181172